Fort Yukon, AK

8:11 AM AKST on December 10, 2016 (GMT -0900)
Fort Yukon

Weather History for PFYU - September, 2012

Change the Weather History Date:

Thursday, September 6, 2012

  Actual Average Record
Temperature  
Mean Temperature 48 °F -  
Max Temperature 51 °F 52 °F 66 °F (2006)
Min Temperature 44 °F 34 °F 17 °F (2004)
Degree Days  
Heating Degree Days 18    
Moisture  
Dew Point 37 °F    
Average Humidity 63    
Maximum Humidity 76    
Minimum Humidity 38    
Precipitation  
Precipitation 0.00 in - - ()
Sea Level Pressure  
Sea Level Pressure 29.70 in    
Wind  
Wind Speed 7 mph (NNW)    
Max Wind Speed 15 mph    
Max Gust Speed 28 mph    
Visibility 10 miles    
Events      
Averages and records for this station are not official NWS values.
T = Trace of Precipitation, MM = Missing Value Source: NWS Daily Summary

Daily Weather History Graph

Daily Weather History Graph

Search for Another Location

Airport or City:

Trip Planner

Search our weather history database for the weather conditions in past years. The results will help you decide how hot, cold, wet, or windy it might be!

Date:

Astronomy

Sep. 06, 2012 Rise Set
Actual Time 6:33 AM AKDT 8:43 PM AKDT
Civil Twilight 5:35 AM AKDT 9:39 PM AKDT
Nautical Twilight 4:15 AM AKDT 10:58 PM AKDT
Astronomical Twilight 2:11 AM AKDT 1:06 AM AKDT
Moon 8:40 PM AKDT (9/6) 3:59 PM AKDT (9/6)
Length of Visible Light 16h 04m
Length of Day
14h 10m
Waning Gibbous, 66% of the Moon is Illuminated
Sep 6
Waning Gibbous
Sep 8
Last Quarter
Sep 15
New
Sep 22
First Quarter
Sep 29
Full

Hourly Weather History & Observations

Time (AKDT) Temp. Windchill Dew Point Humidity Pressure Visibility Wind Dir Wind Speed Gust Speed Precip Events Conditions
12:16 AM 48.2 °F - 37.4 °F 66% 29.48 in 10.0 mi West 4.6 mph - N/A   Mostly Cloudy
12:36 AM 50.0 °F - 37.4 °F 62% 29.50 in 10.0 mi NNW 5.8 mph - N/A   Scattered Clouds
12:56 AM 50.0 °F - 39.2 °F 66% 29.51 in 10.0 mi North 6.9 mph - N/A   Mostly Cloudy
1:16 AM 48.2 °F - 39.2 °F 71% 29.52 in 10.0 mi North 4.6 mph - N/A   Scattered Clouds
1:36 AM 48.2 °F - 39.2 °F 71% 29.53 in 10.0 mi WSW 3.5 mph - N/A   Mostly Cloudy
1:56 AM 48.2 °F - 39.2 °F 71% 29.53 in 10.0 mi WSW 5.8 mph - N/A   Mostly Cloudy
2:16 AM 48.2 °F - 37.4 °F 66% 29.54 in 10.0 mi NW 6.9 mph - N/A   Mostly Cloudy
2:36 AM 50.0 °F - 37.4 °F 62% 29.55 in 10.0 mi WNW 8.1 mph - N/A   Scattered Clouds
2:56 AM 50.0 °F - 37.4 °F 62% 29.55 in 10.0 mi NNW 6.9 mph 17.3 mph N/A   Scattered Clouds
3:16 AM 48.2 °F - 37.4 °F 66% 29.56 in 10.0 mi West 3.5 mph - N/A   Clear
3:36 AM 48.2 °F - 37.4 °F 66% 29.57 in 10.0 mi SW 6.9 mph - N/A   Partly Cloudy
3:56 AM 48.2 °F - 37.4 °F 66% 29.58 in 10.0 mi West 8.1 mph - N/A   Partly Cloudy
4:16 AM 48.2 °F - 37.4 °F 66% 29.58 in 10.0 mi NNW 6.9 mph - N/A   Partly Cloudy
4:36 AM 48.2 °F - 37.4 °F 66% 29.59 in 10.0 mi NNW 4.6 mph - N/A   Partly Cloudy
4:56 AM 46.4 °F 43.5 °F 37.4 °F 71% 29.59 in 10.0 mi West 5.8 mph - N/A   Partly Cloudy
5:16 AM 46.4 °F 43.5 °F 37.4 °F 71% 29.60 in 10.0 mi SW 5.8 mph - N/A   Mostly Cloudy
5:36 AM 46.4 °F 45.2 °F 37.4 °F 71% 29.60 in 10.0 mi South 3.5 mph - N/A   Mostly Cloudy
5:56 AM 44.6 °F 42.2 °F 37.4 °F 76% 29.61 in 10.0 mi SSW 4.6 mph - N/A   Mostly Cloudy
6:16 AM 46.4 °F 43.5 °F 39.2 °F 76% 29.61 in 10.0 mi North 5.8 mph - N/A   Mostly Cloudy
6:36 AM 46.4 °F 42.9 °F 37.4 °F 71% 29.61 in 10.0 mi North 6.9 mph - N/A   Scattered Clouds
6:56 AM 46.4 °F 42.4 °F 37.4 °F 71% 29.62 in 10.0 mi North 8.1 mph - N/A   Partly Cloudy
7:16 AM 46.4 °F 43.5 °F 37.4 °F 71% 29.63 in 10.0 mi North 5.8 mph - N/A   Partly Cloudy
7:36 AM 46.4 °F 43.5 °F 37.4 °F 71% 29.63 in 10.0 mi North 5.8 mph - N/A   Clear
7:56 AM 46.4 °F 44.3 °F 37.4 °F 71% 29.64 in 10.0 mi NNE 4.6 mph - N/A   Partly Cloudy
8:16 AM 46.4 °F 45.2 °F 37.4 °F 71% 29.64 in 10.0 mi NNE 3.5 mph - N/A   Partly Cloudy
8:36 AM 46.4 °F 43.5 °F 39.2 °F 76% 29.64 in 10.0 mi North 5.8 mph - N/A   Partly Cloudy
8:56 AM 48.2 °F - 37.4 °F 66% 29.65 in 10.0 mi North 8.1 mph - N/A   Partly Cloudy
9:16 AM 50.0 °F - 37.4 °F 62% 29.66 in 10.0 mi NNW 8.1 mph - N/A   Scattered Clouds
9:36 AM 50.0 °F - 37.4 °F 62% 29.67 in 10.0 mi North 12.7 mph 21.9 mph N/A   Mostly Cloudy
9:56 AM 50.0 °F - 37.4 °F 62% 29.68 in 10.0 mi NNW 8.1 mph 19.6 mph N/A   Overcast
10:16 AM 50.0 °F - 35.6 °F 58% 29.68 in 10.0 mi North 10.4 mph 24.2 mph N/A   Overcast
10:36 AM 50.0 °F - 37.4 °F 62% 29.69 in 10.0 mi NW 9.2 mph 17.3 mph N/A   Overcast
10:56 AM 50.0 °F - 37.4 °F 62% 29.70 in 10.0 mi NNW 10.4 mph 20.7 mph N/A   Overcast
11:16 AM 50.0 °F - 35.6 °F 58% 29.70 in 10.0 mi North 11.5 mph 23.0 mph N/A   Mostly Cloudy
11:36 AM 50.0 °F - 35.6 °F 58% 29.71 in 10.0 mi North 15.0 mph 23.0 mph N/A   Mostly Cloudy
12:16 PM 51.8 °F - 35.6 °F 54% 29.73 in 10.0 mi NNW 10.4 mph 21.9 mph N/A   Mostly Cloudy
12:36 PM 51.8 °F - 35.6 °F 54% 29.73 in 10.0 mi NNW 11.5 mph 19.6 mph N/A   Overcast
12:56 PM 51.8 °F - 35.6 °F 54% 29.73 in 10.0 mi NNW 10.4 mph 20.7 mph N/A   Mostly Cloudy
1:16 PM 51.8 °F - 35.6 °F 54% 29.74 in 10.0 mi NW 8.1 mph 26.5 mph N/A   Mostly Cloudy
1:36 PM 51.8 °F - 33.8 °F 50% 29.75 in 10.0 mi North 11.5 mph 19.6 mph N/A   Mostly Cloudy
1:56 PM 51.8 °F - 33.8 °F 50% 29.75 in 10.0 mi NW 13.8 mph 20.7 mph N/A   Mostly Cloudy
2:16 PM 51.8 °F - 33.8 °F 50% 29.76 in 10.0 mi NNW 9.2 mph 23.0 mph N/A   Mostly Cloudy
2:36 PM 51.8 °F - 33.8 °F 50% 29.76 in 10.0 mi NNW 12.7 mph 20.7 mph N/A   Mostly Cloudy
2:56 PM 51.8 °F - 33.8 °F 50% 29.76 in 10.0 mi NNW 10.4 mph 18.4 mph N/A   Mostly Cloudy
3:16 PM 51.8 °F - 33.8 °F 50% 29.77 in 10.0 mi North 10.4 mph 24.2 mph N/A   Mostly Cloudy
3:56 PM 51.8 °F - 33.8 °F 50% 29.76 in 10.0 mi North 12.7 mph 20.7 mph N/A   Scattered Clouds
4:16 PM 51.8 °F - 33.8 °F 50% 29.76 in 10.0 mi West 11.5 mph 23.0 mph N/A   Mostly Cloudy
4:36 PM 51.8 °F - 33.8 °F 50% 29.77 in 10.0 mi NNW 9.2 mph 27.6 mph N/A   Overcast
4:56 PM 50.0 °F - 37.4 °F 62% 29.77 in 10.0 mi North 12.7 mph 24.2 mph N/A   Mostly Cloudy
5:16 PM 48.2 °F - 37.4 °F 66% 29.77 in 10.0 mi NNW 8.1 mph 18.4 mph N/A   Overcast
5:36 PM 50.0 °F - 37.4 °F 62% 29.77 in 10.0 mi NNW 12.7 mph 20.7 mph N/A   Overcast
5:56 PM 51.8 °F - 33.8 °F 50% 29.78 in 10.0 mi NNW 15.0 mph 24.2 mph N/A   Overcast
6:16 PM 51.8 °F - 33.8 °F 50% 29.79 in 8.0 mi NNW 10.4 mph 19.6 mph N/A   Overcast
6:36 PM 50.0 °F - 35.6 °F 58% 29.79 in 10.0 mi Calm Calm - N/A   Overcast
6:56 PM 48.2 °F - 39.2 °F 71% 29.80 in 10.0 mi NNW 8.1 mph - N/A   Overcast
7:16 PM 46.4 °F 42.4 °F 37.4 °F 71% 29.80 in 10.0 mi North 8.1 mph - N/A   Mostly Cloudy
7:36 PM 46.4 °F 42.9 °F 39.2 °F 76% 29.81 in 9.0 mi North 6.9 mph - N/A   Overcast
7:56 PM 46.4 °F 44.3 °F 39.2 °F 76% 29.81 in 10.0 mi NNW 4.6 mph - N/A   Mostly Cloudy
8:16 PM 46.4 °F 42.9 °F 37.4 °F 71% 29.81 in 10.0 mi NNW 6.9 mph - N/A   Mostly Cloudy
8:36 PM 46.4 °F 42.4 °F 37.4 °F 71% 29.81 in 10.0 mi NNW 8.1 mph 17.3 mph N/A   Mostly Cloudy
8:56 PM 46.4 °F 41.9 °F 35.6 °F 66% 29.82 in 10.0 mi North 9.2 mph - N/A   Clear
9:16 PM 46.4 °F 42.9 °F 37.4 °F 71% 29.82 in 10.0 mi WNW 6.9 mph 19.6 mph N/A   Clear
9:36 PM 46.4 °F 42.9 °F 35.6 °F 66% 29.83 in 10.0 mi NNW 6.9 mph - N/A   Partly Cloudy
9:56 PM 46.4 °F 42.4 °F 35.6 °F 66% 29.83 in 10.0 mi NNW 8.1 mph 16.1 mph N/A   Clear
10:16 PM 46.4 °F 41.5 °F 35.6 °F 66% 29.83 in 10.0 mi NNW 10.4 mph 18.4 mph N/A   Clear
10:36 PM 46.4 °F 42.4 °F 35.6 °F 66% 29.84 in 10.0 mi North 8.1 mph 18.4 mph N/A   Clear
10:56 PM 44.6 °F 39.7 °F 35.6 °F 71% 29.85 in 10.0 mi North 9.2 mph 18.4 mph N/A   Clear
11:16 PM 44.6 °F 40.7 °F 35.6 °F 71% 29.85 in 10.0 mi North 6.9 mph 16.1 mph N/A   Clear
11:36 PM 44.6 °F 40.2 °F 35.6 °F 71% 29.85 in 10.0 mi NNW 8.1 mph - N/A   Clear
11:56 PM 44.6 °F 40.2 °F 35.6 °F 71% 29.86 in 10.0 mi NNW 8.1 mph - N/A   Clear